Weather History for Burbank, CA

Change the Weather History Date:

Monday, December 9, 2013

  Actual Average Record
Temperature  
Mean Temperature 49 °F 54 °F  
Max Temperature 63 °F 67 °F 84 °F (1975)
Min Temperature 35 °F 41 °F 26 °F (1978)
Degree Days  
Heating Degree Days 16 11  
Month to date heating degree days 98 93  
Since 1 July heating degree days 186 321  
Cooling Degree Days 0 0  
Month to date cooling degree days 1 0  
Year to date cooling degree days 2012 1245  
Moisture  
Dew Point 17 °F    
Average Humidity 35    
Maximum Humidity 59    
Minimum Humidity 10    
Precipitation  
Precipitation 0.00 in 0.07 in 0.61 in (1954)
Month to date precipitation 0.02 0.53  
Year to date precipitation 2.85 15.44  
Since 1 July precipitation 0.25 2.89  
Sea Level Pressure  
Sea Level Pressure 30.22 in    
Wind  
Wind Speed 3 mph (SSE)    
Max Wind Speed 13 mph    
Max Gust Speed 16 mph    
Visibility 10 miles    
Events      
T = Trace of Precipitation, MM = Missing Value Source: NWS Daily Summary

Daily Weather History Graph

Daily Weather History Graph

Search for Another Location

Airport:

Trip Planner

Search our weather history database for the weather conditions in past years. The results will help you decide how hot, cold, wet, or windy it might be!

Date:

Astronomy

Dec. 09, 2013 Rise Set
Actual Time 6:47 AM PST 4:43 PM PST
Civil Twilight 6:20 AM PST 5:11 PM PST
Nautical Twilight 5:49 AM PST 5:42 PM PST
Astronomical Twilight 5:18 AM PST 6:13 PM PST
Moon 11:59 AM PST (12/9) No Moon Set
Length of Visible Light 10h 51m
Length of Day
9h 55m
First Quarter, 52% of the Moon is Illuminated
Dec 9
First Quarter
Dec 17
Full
Dec 25
Last Quarter
Jan 1
New
Jan 7
First Quarter

Hourly Weather History & Observations

Time (PST) Temp. Windchill Dew Point Humidity Pressure Visibility Wind Dir Wind Speed Gust Speed Precip Events Conditions
12:53 AM 39.9 °F 37.8 °F 23.0 °F 51% 30.17 in 10.0 mi SW 3.5 mph - N/A   Clear
1:53 AM 37.9 °F - 23.0 °F 55% 30.17 in 10.0 mi Calm Calm - N/A   Clear
2:53 AM 36.0 °F - 23.0 °F 59% 30.17 in 10.0 mi Calm Calm - N/A   Clear
3:53 AM 36.0 °F - 21.9 °F 57% 30.17 in 10.0 mi Calm Calm - N/A   Clear
4:53 AM 35.1 °F 31.0 °F 19.9 °F 54% 30.17 in 10.0 mi North 4.6 mph - N/A   Clear
5:53 AM 39.9 °F - 19.0 °F 43% 30.18 in 10.0 mi Calm Calm - N/A   Clear
6:53 AM 36.0 °F - 21.0 °F 55% 30.22 in 10.0 mi Calm Calm - N/A   Clear
7:53 AM 41.0 °F - 21.9 °F 47% 30.24 in 10.0 mi Calm Calm - N/A   Clear
8:53 AM 48.9 °F - 21.9 °F 35% 30.24 in 10.0 mi SW 5.8 mph - N/A   Clear
9:53 AM 51.1 °F - 23.0 °F 33% 30.25 in 10.0 mi East 4.6 mph - N/A   Clear
10:53 AM 57.0 °F - 25.0 °F 29% 30.24 in 10.0 mi Calm Calm - N/A   Clear
11:53 AM 60.1 °F - 7.0 °F 12% 30.21 in 10.0 mi SW 8.1 mph - N/A   Clear
12:53 PM 63.0 °F - 5.0 °F 10% 30.19 in 10.0 mi Calm Calm - N/A   Clear
1:53 PM 61.0 °F - 18.0 °F 19% 30.19 in 10.0 mi SE 9.2 mph - N/A   Clear
2:53 PM 61.0 °F - 15.1 °F 17% 30.21 in 10.0 mi SSE 5.8 mph - N/A   Clear
3:53 PM 61.0 °F - 14.0 °F 16% 30.22 in 10.0 mi ESE 5.8 mph - N/A   Clear
4:53 PM 57.0 °F - 15.1 °F 19% 30.23 in 10.0 mi SSW 4.6 mph - N/A   Clear
5:53 PM 53.1 °F - 18.0 °F 25% 30.25 in 10.0 mi Calm Calm - N/A   Clear
6:53 PM 48.9 °F - 17.1 °F 28% 30.26 in 10.0 mi Calm Calm - N/A   Clear
7:53 PM 46.9 °F - 12.9 °F 25% 30.27 in 10.0 mi Calm Calm - N/A   Clear
8:53 PM 46.0 °F - 12.0 °F 25% 30.27 in 10.0 mi Calm Calm - N/A   Clear
9:53 PM 42.1 °F 40.2 °F 18.0 °F 38% 30.25 in 10.0 mi East 3.5 mph - N/A   Clear
10:53 PM 46.0 °F 43.9 °F 6.1 °F 20% 30.25 in 10.0 mi ESE 4.6 mph - N/A   Clear
11:53 PM 41.0 °F 38.0 °F 10.0 °F 28% 30.26 in 10.0 mi NNW 4.6 mph - N/A   Clear